Погода Ханты-Мансийск

Погода Ханты-Мансийск : погода сейчас, прогноз погоды и архив. Всё, что Вы хотите узнать о погоде Ханты-Мансийск!

Хотите узнать прогноз погоды Ханты-Мансийск? Тогда Вам сюда: Погода Ханты-Мансийск

Поиск расширенной информации на нашем сайте:

Другие новости

Новости СМИ2

Главная страница сайта

Новости сайта

03.07.2017

Напоминаем, что на нашем специализированном сайте Метеоцентр.Азия вы можете получить высокодетализированные автоматические прогнозы погоды по пунктам России, СНГ и мира в авиационном формате (включающие направление и скорость ветра, видимость, явления погоды, количество и форму облачности, нижнюю и верхнюю границу облачности).


Погода Ханты-Мансийск - сегодня

Время (UTC), дата Ветер
(°,м/с) 
Видим.   Явления Облачность Т
(°С)
Тd
(°С)
f(%) Тe
(°С)
Pmin
(гПа)
dP
(гПа)
Po
(мм)
O2
(г/м3)
Тmin Tmax R s Состояние
почвы
03 13.10.18 220 (ЮЗ) 10 км  в посл. час снег [диам. изморози 0.3 мм]  10/10 300 м 
[Frnb|Ns]
-1.1 -2.7 89 -2  998.4  745  302  -3    0.0     
09 13.10.18 230 (ЮЗ) 10 км  {ливн. осадки, снег}  10/9 600 м кучево-дожд., средняя 
[Cb cap|Ac As]
+1.5 -1.1 83 +1  998.8  0.5  745  299           
12 13.10.18 230 (ЮЗ) 10 км  слаб. ливневой дождь{снег}  10/10 300 м кучево-дожд. 
[Cb cap]
+0.9 -0.5 90 999.2  0.4  745  299           
15 13.10.18 280 (З) 10 км  слаб. ливневой дождь  8/8 300 м кучево-дожд. 
[Cb cap]
-0 -0.7 95 -1  999.1  0.1  745  300    +1.7  0.8     
18 13.10.18 270 (З) 10 км  слаб. ливневой дождь  10/10 300 м кучево-дожд. 
[Cb cap]
+0 -0.6 96 -1  998.6  -0.5  745  300           
21 13.10.18 300 (СЗ) 10 км  слаб. ливневой дождь  10/8 300 м средняя 
[Frnb|As op]
+0 -0.6 96 +1  999.1  0.4  745  300           
03 14.10.18 330 (СЗ) 10 км  слаб. снег  10/8 300 м средняя 
[Frnb|As op]
-1.5 -2.2 95 -1  1002.2  1.4  747  303  -2.3         
09 14.10.18 тихо ()   10 км  [диам. гололёда 0 мм]  10/10 1000 м 
[Sc]
-0 -3.6 77 1008.1  3.3  752  303           
12 14.10.18 010 (С) 10 км    8/8 1000 м 
[Sc]
-0.7 -2.4 88 1010.7  2.6  754  305           
18 14.10.18 тихо ()   10 км    9/9 600 м 
[Sc]
-1.5 -3.2 88 -2  1014.8  1.3  757  307           
21 14.10.18 тихо ()   10 км    10/10 300 м 
[Sc]
-1.4 -3.5 86 -1  1016.7  1.8  758  308           
00 15.10.18 тихо ()   10 км    10/10 300 м 
[Sc]
-2.1 -3.2 92 -2  1017.7  759  309           
03 15.10.18 тихо ()   10 км    10/10 300 м 
[Sc]
-1.7 -3.4 88 -2  1018.8  1.1  760  309  -2.6      мокрый или
старый снег
50-90% 
06 15.10.18 270 (З) 10 км    10/10 300 м кучево-дожд. 
[Cb cap]
-0.8 -5.3 71 1019.9  1.1  761  308           
09 15.10.18 280 (З) 10 км    10/10 600 м 
[Sc]
-0.4 -5.8 67 1020.4  0.5  761  308           
12 15.10.18 230 (ЮЗ) 10 км    9/9 600 м 
[Sc]
-0.9 -5.5 71 1021.8  1.3  762  309           
18 15.10.18 200 (Ю) 10 км    10/10 2000 м 
[Ns]
-1.4 -5.4 74 -1  1022.6  0.2  763  310           
21 15.10.18 180 (Ю) 10 км    9/9 1000 м 
[Sc]
-1.9 -3.9 86 -1  1021.9  -0.6  762  310           
00 16.10.18 180 (Ю) 10 км    10/0 средняя 
[As trans]
-2.3 -3.7 90 -3  1021.1  -0.9  762  310           
03 16.10.18 180 (Ю) 10 км    10/4 1000 м средняя, верхняя 
[Sc|As op|Ci]
-2.3 -4.9 82 -3  1020.1  -1  761  310  -2.9      мокрый или
старый снег
10-40% 
06 16.10.18 190 (Ю) 10 км    10/0 средняя 
[As trans]
-0.4 -4.1 76 -3  1018.4  -1.6  760  307           
15 16.10.18 190 (Ю) 4{11}  4000 м  слаб. снег  10/0 средняя 
[Ac As]
-1 -1.7 95 -4  1011.6  -1.5  755  305    +0.5  0.5     
00 17.10.18 200 (Ю) 4000 м  слаб. снег  10/0 средняя 
[Ac As]
-0.4 -1 96 -2  1003.9  -2.6  749  302           
03 17.10.18 190 (Ю) 4000 м  слаб. снег  10/0 средняя 
[Ac As]
-0.3 -0.8 96 -2  1001  -2.9  747  301  -1.1    равномерный
мокрый или
старый снег
100% 
06 17.10.18 160 (Ю) 1000 м  снег  10/10 600 м 
[Ns]
-0.1 -0.6 96 -2  998.2  -2.7  745  300           
Время (UTC), дата Ветер
(°,м/с) 
Видим.   Явления Облачность Т
(°С)
Тd
(°С)
f(%) Тe
(°С)
Pmin
(гПа)
dP
(гПа)
Po
(мм)
O2
(г/м3)
Тmin Tmax R s Состояние
почвы

Для получения пояснительной информации подведите курсор к названию столбца.

ПОГОДА Ханты-Мансийск - архив

Всё, что Вы хотите узнать о погоде Ханты-Мансийск - удобно и подробно!

Выберите нужную дату (начиная с 1 января 2015* года) и нажмите кнопку "Найти".
Будут отображены архивные сводки погоды по пункту Ханты-Мансийск, начиная с указанной даты.


Отображать данные в формате CSV (для использования в таблицах Excel)


Внимание! Наш архив погоды предназначен исключительно для личного некоммерческого использования в познавательных целях. Если Вам необходимы официальные справки о состоянии погоды (для производственных, юридических, коммерческих и т.п. целей), обращайтесь в органы Росгидромета.

*Примечание: данная дата относится к архиву по метеостанциям СССР (Россия, СНГ, Балтия).
Архив по метеостанциям Зарубежной Европы и Азии (кроме Китая) хранится 10 дней, по другим регионам земного шара (Китай, Африка, Америка, Австралия, Океания) - 1 день.

Ханты-Мансийск - район местоположения метеостанции


Название, широта, долгота, высота метеостанции:
Ханты-Мансийск 61°ш. 69°д. 46 м над ур. моря [Российская Федерация]

Дополнительная информация

В oтличие oт бoльшинства пoгoдных сайтoв мы публикуем пoдрoбную метеoинфoрмацию в детальнoм прoфессиoнальнoм фoрмате.

Характеристики температуры и влажнoсти вoздуха измеряются на высoте 2 м в тени вдали oт зданий и деревьев.
Скoрoсть ветра измеряется на высoте 10 м (на урoвне рoста челoвека скoрoсть ветра ниже в 1.5-2 раза). Если метеoстанция нахoдится в гoрoде или в лесу, тo скoрoсть ветра занижена на 2-4 м/с пo сравнению с oткрытым местoм. Скoрoсть ветра над акватoриями крупных рек и oзёр, а также на вершинах хoлмoв на 2-5 м/с выше, чем в oбычных услoвиях.
Атмoсфернoе давление в разных тoчках местнoсти мoжет значительнo oтличаться oт давления на метеoстанции, в зависимoсти oт услoвий рельефа (при пoдъёме на 10 м давление пoнижается примернo на 1 мм рт.ст.).